Probability
0 0 0 0 0 1 2 3 4 3 2 1 0 0 0 0 0 0 0 0 0 0 1 0 1 1 1 0 0 0 0 0 0 0 0 0 0 0 0 0 1 1 1
0 0 0 0 0 0 1 3 3 3 2 1 0 0 0 0 0 0 0 0 0 1 2 2 2 1 0 0 0 0 1 1 0 0 0 0 0 0 0 0 0 0 0
0 0 0 0 0 0 0 1 1 2 2 1 0 0 0 0 0 0 0 0 0 1 3 5 4 2 0 0 0 0 1 1 1 0 0 0 0 0 0 0 0 0 0
0 0 0 0 0 0 0 0 0 1 1 0 0 0 0 0 0 0 0 0 0 0 1 4 5 3 2 1 0 0 1 1 1 0 0 0 0 0 0 0 0 0 0
0 0 0 0 0 0 0 0 0 0 0 0 0 0 0 0 0 0 0 0 0 0 0 1 2 2 3 4 2 0 0 0 1 1 0 0 0 0 0 0 0 0 0
0 0 0 0 0 0 0 1 1 1 0 0 0 0 0 0 0 0 0 0 0 0 0 0 0 1 2 4 4 1 0 0 1 1 0 0 1 1 0 0 0 0 0
0 0 0 0 0 0 0 1 2 1 0 0 0 0 0 0 0 0 0 0 0 0 0 0 0 0 1 2 3 2 1 1 1 1 0 1 2 2 1 0 0 0 0
0 0 0 0 0 0 0 2 2 1 0 0 0 0 0 0 0 0 0 0 0 0 0 0 0 0 0 1 1 1 1 1 2 1 0 1 2 2 1 0 0 0 0
0 0 0 0 0 0 0 1 2 1 0 0 0 0 0 0 0 0 0 0 0 0 0 0 0 0 0 0 0 0 0 1 2 2 1 1 1 1 1 1 0 0 0
0 0 0 0 0 0 0 0 1 1 0 0 1 0 0 0 0 0 0 0 0 0 0 0 0 0 0 0 0 0 0 1 3 4 2 0 0 0 0 0 0 0 0
0 0 0 0 0 0 0 0 0 0 0 0 0 0 0 0 0 0 0 0 0 0 0 0 0 0 0 0 0 0 0 1 4 5 2 0 0 1 0 0 0 0 0
0 0 0 0 0 0 0 0 0 0 0 0 0 0 0 0 0 0 0 0 0 0 0 0 0 0 0 0 0 0 0 0 2 4 4 2 0 0 0 0 0 0 0
0 0 0 0 0 0 0 0 0 0 0 0 0 0 0 0 0 0 0 0 0 0 0 0 0 0 0 0 0 0 0 0 1 3 4 2 0 0 0 0 0 0 0
0 0 0 0 0 0 0 0 0 0 0 0 0 0 0 0 0 0 0 0 0 0 0 0 0 0 0 0 0 0 0 0 0 1 1 1 0 0 0 0 0 0 0
0 0 0 0 0 0 0 0 0 0 0 0 0 0 0 0 0 0 0 0 0 0 0 0 0 0 0 0 0 0 0 0 0 0 0 0 0 0 0 0 0 0 0
0 0 0 0 0 0 0 0 0 0 0 0 0 0 0 0 0 0 0 0 0 0 0 0 0 0 0 0 0 0 0 0 0 0 0 0 0 0 0 0 0 0 0
0 0 0 0 0 0 0 0 0 0 0 0 0 0 0 0 0 0 0 0 0 0 0 0 0 0 0 0 0 0 0 0 0 0 0 0 0 0 0 0 0 0 0
0 0 0 0 0 0 0 0 0 0 0 0 0 0 0 0 0 0 0 0 0 0 0 0 0 0 0 0 0 0 0 0 0 0 0 0 0 0 0 0 0 0 0
0 0 0 0 0 0 0 0 0 0 0 0 0 0 0 0 0 0 0 0 0 0 0 0 0 0 0 0 0 0 0 0 0 0 0 0 0 0 0 0 0 0 0
0 0 0 0 0 0 0 0 0 0 0 0 0 0 0 0 0 0 0 0 0 0 0 0 0 0 0 0 0 0 0 0 0 0 0 0 0 0 0 0 0 0 0
0 0 0 0 0 0 0 0 0 0 0 0 0 0 0 0 0 0 0 0 0 0 0 0 0 0 0 0 0 0 0 0 0 0 0 0 0 0 0 0 0 0 0
0 0 0 0 0 0 0 0 0 0 0 0 0 0 0 0 0 0 0 0 0 0 0 0 0 0 0 0 0 0 0 0 0 0 0 0 0 0 0 0 0 0 0
0 0 0 0 0 0 0 0 0 0 0 0 0 0 0 0 0 0 0 0 0 0 0 0 0 0 0 0 0 0 0 0 0 0 0 0 0 0 0 0 0 0 0
0 0 0 0 0 0 0 0 0 0 0 0 0 0 0 0 0 0 0 0 0 0 0 0 0 0 0 0 0 0 0 0 0 0 0 0 0 0 0 0 0 0 0
0 0 0 0 0 0 0 0 0 0 0 0 0 0 0 0 0 0 0 0 0 0 0 0 0 0 0 0 0 0 0 0 0 0 0 0 0 0 0 0 0 0 0
0 0 0 0 0 0 0 0 0 0 0 0 0 0 0 0 0 0 0 0 0 0 0 0 0 0 0 0 0 0 0 0 0 0 0 0 0 0 0 0 0 0 0
Wind_Speed
1 1 1 1 1 1 1 1 1 1 2 2 2 2 2 1 2 2 2 5 6 5 5 6 6 6 6 7 7 8 8 8 8 7 7 7 7 7 8 8 9 9 9
1 1 1 1 1 1 1 1 1 2 2 2 2 2 2 1 2 3 2 3 5 5 5 5 5 6 6 6 7 7 8 7 7 7 6 7 6 6 7 8 8 8 7
2 1 1 1 1 1 1 1 1 2 2 2 2 2 2 2 2 2 2 2 2 4 5 5 5 5 5 5 6 7 7 6 6 6 6 6 6 6 6 7 7 6 6
2 2 1 1 1 1 1 1 1 1 1 1 1 1 1 1 1 1 2 2 2 2 3 5 6 5 5 5 5 6 6 5 5 5 5 5 5 5 6 6 6 6 5
1 1 1 1 2 1 1 1 1 1 1 1 1 1 1 1 1 1 2 2 2 2 2 4 5 5 5 5 5 5 5 5 5 5 5 5 5 5 6 6 6 5 5
2 1 1 1 1 1 1 1 1 1 0 0 0 1 1 1 1 1 1 1 2 2 2 2 2 3 4 5 4 4 5 5 4 4 4 4 5 5 5 6 5 5 5
3 1 1 1 1 1 1 0 0 1 1 0 1 1 1 0 1 0 0 1 1 1 2 2 2 1 2 4 4 3 4 4 4 5 5 5 4 5 6 5 5 5 5
2 2 2 1 1 1 1 1 0 0 1 1 1 1 0 1 1 1 0 1 1 1 1 1 2 2 1 1 2 3 3 3 5 5 5 5 4 5 5 5 5 5 5
2 2 2 2 1 1 1 2 2 1 2 2 1 2 2 2 0 1 1 1 1 1 1 1 1 2 2 1 2 1 2 2 4 5 5 4 4 4 5 5 5 5 5
3 3 3 2 2 1 2 2 2 2 2 2 2 1 1 1 2 1 1 1 1 1 1 1 0 1 2 2 2 2 2 3 3 4 5 5 5 4 5 5 5 5 5
2 3 3 3 3 2 2 3 3 3 3 3 2 1 1 1 1 2 2 2 1 1 1 1 1 1 1 2 2 2 3 3 3 4 5 5 5 5 5 5 5 4 4
2 3 3 3 3 2 3 3 3 4 3 4 3 2 2 2 2 1 2 2 2 2 1 1 1 1 1 2 2 3 4 3 4 4 5 5 5 5 4 4 4 4 4
2 3 3 3 3 3 3 3 3 3 4 3 3 3 3 3 2 2 2 1 1 1 1 1 2 2 1 1 1 3 3 3 4 4 4 4 4 4 4 4 3 3 3
3 3 3 3 3 3 4 3 2 3 3 3 4 3 3 3 2 2 2 2 1 1 1 2 1 2 1 2 2 2 3 4 3 4 4 3 3 3 3 3 3 2 2
3 3 3 3 3 4 3 3 2 3 3 3 3 4 3 3 2 2 2 3 4 3 3 3 2 1 1 1 2 2 2 4 3 3 3 3 3 3 3 3 2 2 2
4 3 3 3 3 4 3 3 3 3 3 3 3 4 3 3 2 2 3 2 2 3 3 2 2 1 1 1 2 2 2 4 4 4 4 3 3 3 3 2 2 2 2
4 4 3 3 3 4 4 3 4 3 3 3 3 4 4 3 3 3 3 3 3 2 3 2 1 1 2 2 1 1 1 2 3 4 4 4 4 4 3 2 2 2 2
4 4 4 4 4 4 4 4 4 4 4 4 4 4 5 3 4 4 3 4 3 3 3 3 2 1 2 3 2 2 1 2 2 4 5 4 4 4 4 3 3 2 2
5 5 4 4 4 4 4 4 4 5 4 4 4 5 5 4 5 4 4 4 3 3 3 3 3 2 1 2 2 1 1 1 2 3 5 5 4 4 4 4 3 3 3
5 5 5 5 4 4 4 4 4 4 4 4 5 5 5 5 5 5 5 5 4 4 3 3 3 3 2 2 2 2 1 1 2 2 3 3 4 4 4 4 3 3 3
6 5 5 5 4 4 4 4 4 5 5 5 5 5 5 6 7 6 5 5 5 4 4 4 4 3 3 3 4 3 3 1 1 2 2 2 2 2 2 3 3 4 4
5 5 5 5 5 5 7 9 6 4 4 5 5 5 5 6 7 8 9 9 8 7 6 5 4 5 5 4 3 4 3 2 2 2 2 2 2 2 2 2 4 4 4
5 5 5 5 5 6 9 9 9 5 4 5 5 4 4 4 6 5 7 8 8 10 10 7 6 6 6 6 6 5 5 3 2 3 2 2 2 2 2 2 4 4 4
5 5 5 5 5 7 9 9 9 5 4 5 5 5 5 4 5 5 4 5 5 6 7 6 6 6 5 5 6 5 5 2 1 1 2 2 2 2 2 2 5 6 5
6 5 5 5 5 6 8 9 8 3 3 4 4 5 5 5 7 7 5 4 4 4 4 6 6 6 7 7 5 4 5 4 2 2 1 2 2 1 1 2 3 6 6
6 6 6 5 6 6 7 8 8 3 3 4 4 4 6 6 7 7 5 4 5 4 3 2 3 3 4 6 7 6 6 5 3 2 3 2 2 1 1 2 2 2 3
Wind_Direction
28 33 13 19 354 15 40 347 350 1 6 19 30 59 60 44 64 79 94 104 108 111 120 127 127 126 126 122 127 126 124 121 120 117 111 111 110 110 109 106 104 102 98
16 18 13 10 4 17 350 347 33 20 9 23 20 32 42 39 62 85 98 100 106 109 116 125 125 127 129 132 131 131 129 128 129 127 124 122 119 120 119 114 109 106 103
15 14 1 352 7 11 346 356 36 39 28 32 15 16 33 44 61 92 109 110 109 106 116 123 123 123 126 136 142 139 132 128 133 135 134 134 132 132 132 126 120 115 111
4 9 8 354 354 1 5 13 40 52 29 29 14 4 17 34 49 81 99 110 109 110 115 119 121 121 125 126 136 137 140 137 136 136 137 143 145 146 144 139 131 126 121
347 358 359 350 340 356 4 358 30 35 52 24 2 10 21 28 12 58 83 99 108 112 117 122 123 123 125 132 137 141 144 145 147 147 150 154 156 159 155 149 144 139 133
332 0 345 318 329 344 354 10 34 15 37 83 30 34 11 359 22 42 70 86 104 118 118 129 135 136 137 137 140 147 153 157 166 164 161 161 166 168 163 161 161 157 151
338 338 318 298 295 282 271 297 66 45 328 58 70 34 358 348 104 52 64 87 88 98 117 122 127 134 149 151 144 147 162 173 180 176 167 164 167 173 172 170 169 164 166
329 328 302 282 270 258 263 233 138 213 269 212 140 126 180 313 308 229 137 131 137 92 94 120 131 130 123 141 138 148 173 183 185 181 177 178 181 188 180 178 174 169 163
328 318 303 293 279 261 239 231 211 219 228 256 205 174 175 197 258 276 229 189 159 137 119 94 136 142 143 145 149 151 163 174 183 179 170 168 168 175 181 176 172 175 171
325 320 315 296 274 255 255 243 238 231 212 229 244 240 225 164 162 199 274 242 172 163 168 153 154 162 151 143 141 145 150 154 172 174 172 172 171 175 171 170 177 180 181
318 321 315 301 283 261 253 255 247 231 223 222 221 228 251 298 210 171 221 237 262 238 191 191 195 190 165 151 157 164 168 178 193 196 189 183 180 178 179 174 172 175 173
295 299 304 293 286 277 264 257 252 241 233 227 225 213 196 195 209 195 208 227 237 238 213 201 191 196 182 155 153 155 167 185 207 212 199 188 184 177 168 169 177 189 190
293 286 293 291 289 280 275 265 253 251 244 233 226 226 221 222 202 198 179 220 263 265 200 221 211 202 171 145 148 154 166 183 207 213 201 189 176 163 168 171 181 191 199
283 286 292 291 296 289 281 269 259 254 250 242 238 230 227 221 202 192 184 176 213 266 220 221 226 191 159 135 157 151 170 169 184 200 198 186 165 158 164 169 175 187 202
286 287 290 291 291 288 282 271 260 259 249 244 236 229 229 219 206 203 195 182 179 207 236 209 195 202 164 138 168 159 162 166 166 162 165 165 159 157 160 167 177 184 198
291 287 287 288 290 290 289 280 263 256 257 252 241 230 232 220 204 204 199 206 200 196 227 219 202 201 180 162 172 156 153 168 173 171 165 157 156 156 161 174 190 199 213
299 289 284 279 284 287 289 285 274 258 252 255 247 235 233 228 210 206 205 205 209 193 220 256 239 181 169 166 165 156 162 185 179 181 170 164 164 166 169 180 205 216 223
309 301 291 279 276 279 278 276 280 273 256 254 251 241 234 228 221 211 210 212 212 203 196 221 226 197 196 183 176 177 196 182 174 180 183 183 183 184 184 189 202 209 211
308 305 296 288 280 275 273 269 270 274 265 258 251 244 239 224 224 218 213 210 210 209 195 199 212 200 195 174 158 159 153 182 183 182 191 195 199 200 201 205 204 211 214
302 299 296 290 285 281 273 267 267 268 270 269 263 252 243 227 224 218 219 212 206 200 192 197 203 189 186 173 154 161 173 208 203 188 200 202 201 202 206 212 212 215 218
299 297 296 291 287 284 277 274 262 261 264 267 265 256 248 242 235 229 227 214 206 203 197 203 202 191 189 180 186 180 184 185 221 192 174 199 193 197 209 214 216 218 222
297 296 295 292 286 283 287 284 277 265 263 263 267 266 255 240 237 238 239 231 216 207 202 205 209 201 201 195 182 178 169 167 218 206 171 212 190 205 213 206 222 228 233
300 295 294 294 285 281 284 283 281 273 261 260 261 261 262 250 240 234 238 236 230 227 217 211 215 211 199 194 182 184 185 187 211 189 162 219 205 220 224 226 229 232 237
299 297 293 290 286 285 289 288 288 280 263 258 255 249 250 248 241 235 229 226 227 230 222 218 220 216 207 194 192 189 179 169 168 198 169 210 211 225 233 226 229 234 242
298 293 290 288 286 283 289 292 295 278 271 264 259 250 245 242 243 240 229 222 226 231 228 224 221 211 204 202 190 162 161 168 203 229 199 185 200 232 241 239 232 235 243
291 293 289 281 277 277 286 294 299 277 273 271 263 251 247 251 249 242 232 218 222 222 206 207 196 187 187 187 194 194 182 182 185 213 203 182 185 163 247 250 227 224 235